Wind_Speed
10 10 11 10 10 9 9 9 9 9 9 9 9 10 10 10 9 9 9 8 8 8 8 8 8 9 9 10 11 11 12 12 13 14 14 15 15 16 16 17 17 18 18 18
11 11 11 11 11 10 10 10 10 10 10 10 10 10 10 10 10 10 9 9 9 9 9 9 10 10 11 12 13 13 14 14 15 16 16 17 18 18 19 19 20 20 20 21
13 12 12 11 11 11 11 11 11 10 10 12 12 11 11 11 11 11 11 11 11 11 11 12 12 12 13 14 15 16 16 17 18 18 19 20 20 21 21 22 22 23 23 23
14 14 13 11 12 12 12 12 11 11 11 12 12 12 11 11 12 11 11 12 12 13 13 14 14 15 16 17 18 18 19 20 20 21 21 22 23 24 24 25 25 25 26 26
15 15 14 13 13 13 13 12 12 12 12 12 12 12 12 12 12 12 13 13 14 14 15 16 16 17 18 19 20 21 21 22 22 23 23 24 25 26 27 27 28 28 28 29
16 16 15 14 14 14 14 14 14 14 14 14 14 13 13 13 14 14 14 15 15 16 16 17 18 19 20 22 22 23 24 24 25 26 26 27 28 29 30 30 31 31 31 31
18 18 16 15 15 15 15 14 15 16 16 16 15 15 15 15 16 16 17 17 18 18 19 19 20 21 23 24 24 25 26 27 28 29 30 31 31 32 32 33 33 33 33 34
18 18 16 17 17 16 16 16 17 17 17 18 17 17 17 17 18 18 18 19 20 20 21 22 23 24 25 26 26 27 28 30 31 32 33 33 34 34 35 35 35 35 36 36
19 18 17 18 18 18 18 18 18 18 18 19 19 19 19 20 21 21 21 22 22 23 24 25 26 27 28 28 29 30 31 32 33 34 34 35 36 36 37 37 38 38 38 39
21 19 20 20 20 20 21 21 20 20 20 20 21 21 22 22 22 23 24 25 26 26 27 28 29 30 30 31 32 32 33 34 35 35 36 37 38 38 39 40 40 41 41 42
22 22 22 22 22 22 22 22 23 23 23 23 23 23 24 25 25 26 27 28 29 29 30 31 32 33 33 33 34 35 36 37 37 38 39 39 40 41 42 43 44 44 44 45
24 24 25 24 24 24 24 24 25 25 25 25 25 26 27 28 28 29 30 30 31 31 32 33 34 34 35 35 36 37 38 39 39 40 41 42 43 44 45 45 46 46 47 48
25 25 26 26 26 26 26 26 26 26 27 27 28 28 29 29 30 30 31 32 32 33 34 34 35 36 36 37 38 38 40 41 42 43 44 45 46 46 47 47 48 49 50 50
26 26 25 26 26 26 27 27 27 27 27 28 29 29 30 30 31 31 32 32 33 34 35 35 36 37 38 39 40 41 42 43 44 46 47 47 47 48 49 49 50 51 51 52
27 27 27 27 27 27 27 28 28 28 28 29 29 30 31 31 32 33 33 34 35 36 37 38 38 39 40 42 43 43 44 45 46 47 48 49 50 51 51 52 52 53 53 53
30 29 29 29 29 29 29 29 29 30 30 30 31 32 32 33 34 34 35 36 37 38 39 40 40 42 43 44 46 46 47 48 49 49 50 51 52 52 53 53 54 54 55 55
32 32 32 32 31 31 31 31 31 32 32 32 33 34 35 36 36 37 38 39 40 40 41 42 43 45 46 47 48 49 49 50 51 52 52 52 53 54 55 55 56 56 56 56
34 34 34 34 34 34 34 34 34 34 34 35 36 37 37 38 40 41 41 41 42 42 43 45 46 47 48 49 50 51 52 52 53 53 53 54 54 55 56 56 56 56 56 56
35 35 35 35 35 35 35 35 36 36 37 37 38 38 39 40 41 42 42 43 44 45 46 47 48 49 50 50 51 52 53 53 54 54 54 55 55 55 55 56 56 56 56 56
34 35 35 35 36 37 38 38 38 39 39 40 40 41 42 42 43 43 44 45 46 47 48 48 49 50 51 52 52 53 53 54 54 54 55 55 55 55 55 56 56 56 56 55
35 35 36 36 37 38 39 39 40 40 41 42 42 43 43 43 44 45 46 47 48 49 49 50 50 51 52 52 53 53 54 54 54 55 55 55 55 56 56 56 56 56 56 55
36 36 37 37 38 39 39 40 41 42 42 43 44 44 44 45 46 47 48 48 49 50 50 51 51 52 52 52 53 53 54 54 55 55 55 55 56 56 56 56 56 55 54 53
36 36 37 38 39 40 40 41 42 43 44 44 44 44 45 46 46 47 48 48 49 50 50 50 51 51 52 52 52 53 53 53 54 54 54 55 55 55 55 55 54 54 53 52
37 38 38 39 40 40 41 42 43 43 43 43 44 44 45 45 46 47 48 49 49 49 49 50 50 51 51 51 51 52 52 53 53 53 53 54 54 55 55 54 53 52 51 51
38 38 39 39 40 41 42 42 42 42 43 43 44 45 46 47 47 48 48 48 49 49 49 49 49 50 50 50 51 51 51 52 52 52 53 53 53 53 53 52 51 50 50 49
38 38 39 39 40 41 41 42 42 42 43 44 44 45 46 47 47 47 47 47 47 47 47 47 48 49 49 50 50 51 51 51 51 52 52 52 52 51 50 49 49 48 48 47
39 39 39 39 40 40 41 41 41 42 43 43 44 45 45 45 45 45 45 45 45 46 46 47 48 49 49 50 50 51 51 50 51 51 51 51 50 49 49 48 47 47 46 46
Wind_Direction
209 211 213 215 217 218 216 216 219 218 217 215 218 222 223 223 225 229 232 236 240 245 252 259 267 273 277 279 281 282 287 292 296 299 300 301 303 304 305 306 308 308 309 309
216 218 221 223 224 223 220 222 224 223 223 224 226 227 228 230 234 238 239 243 249 254 257 264 271 275 279 282 284 285 287 290 294 296 298 300 302 304 303 303 304 304 305 305
224 224 224 225 226 226 226 229 230 227 226 226 231 235 237 238 239 240 242 247 253 260 264 268 271 273 279 283 285 285 285 287 290 294 297 299 301 302 301 300 300 301 302 303
226 228 228 227 231 232 233 234 233 231 232 232 232 232 236 241 243 245 249 253 257 263 269 273 272 274 280 284 285 286 286 288 289 292 295 298 299 300 299 298 298 298 299 300
228 230 229 230 235 236 236 234 235 235 236 236 235 237 240 245 249 251 255 259 263 268 273 276 276 278 282 284 285 286 286 287 289 292 294 295 296 297 298 298 297 296 297 298
236 237 234 235 237 238 238 236 238 239 240 240 241 243 246 250 252 255 258 263 269 274 278 280 280 281 284 286 287 287 287 287 289 291 292 293 294 295 295 295 295 295 296 297
242 243 241 240 242 242 242 241 241 243 244 244 245 248 250 253 255 259 264 268 273 277 280 282 283 284 286 288 288 288 288 287 288 289 290 292 293 294 295 295 295 294 295 295
246 246 244 244 245 246 245 244 244 245 247 250 251 254 256 257 259 264 268 272 276 279 282 285 287 287 287 288 288 288 288 289 289 289 291 292 293 293 294 295 295 295 294 293
246 248 248 246 247 247 247 247 247 248 251 254 257 259 259 261 264 267 272 275 279 282 284 286 288 289 289 289 289 289 290 291 291 291 292 293 293 294 295 295 295 294 294 293
245 245 246 246 246 247 248 249 251 253 255 257 259 260 262 265 269 272 275 278 280 282 283 285 287 289 290 290 290 291 292 292 292 292 292 293 294 294 295 295 295 294 294 293
248 246 246 247 248 249 250 252 254 256 258 260 262 265 267 269 272 274 277 278 280 281 282 284 287 288 289 290 291 291 292 292 293 293 293 293 294 294 295 294 294 294 294 294
249 247 248 250 252 253 255 257 259 260 262 264 267 269 271 272 274 276 277 278 279 281 282 284 286 287 289 290 292 293 292 293 293 293 293 294 294 294 294 294 294 294 295 294
250 250 252 254 255 256 256 258 261 263 265 267 269 271 272 273 274 275 277 278 280 281 283 284 286 288 289 291 292 293 293 293 293 294 294 294 295 295 295 294 295 295 295 295
252 252 254 256 257 257 258 259 262 264 266 268 270 271 273 275 276 277 279 280 282 284 285 286 287 289 290 292 292 293 294 294 294 294 294 295 295 295 295 295 295 295 295 295
254 255 256 257 258 259 259 260 262 264 267 270 271 273 274 275 276 278 280 282 283 285 286 287 288 289 290 292 293 294 295 295 295 295 295 295 295 295 295 295 296 295 295 295
255 256 257 258 260 261 262 263 264 266 268 271 272 273 274 275 277 279 281 282 284 286 287 288 289 290 291 292 293 293 294 295 295 296 296 296 295 295 295 296 296 296 295 295
256 257 258 259 261 262 264 265 266 268 270 271 272 274 275 276 278 280 282 284 285 286 288 288 289 290 291 292 293 294 295 296 296 297 297 297 297 297 296 296 296 296 296 295
256 258 259 261 262 263 264 266 268 269 271 273 275 276 277 278 279 281 283 285 286 287 288 289 290 291 292 293 294 295 296 296 296 297 297 297 298 298 298 297 297 296 296 296
258 259 260 261 261 263 264 267 269 271 272 275 277 278 279 280 282 283 284 285 286 287 288 290 291 292 293 294 295 296 296 297 297 297 297 298 298 298 299 299 298 297 296 296
257 258 259 260 261 262 264 267 269 271 273 275 277 279 280 281 282 284 285 286 287 288 289 290 291 292 293 294 295 296 296 297 297 298 298 299 299 299 299 299 299 299 298 297
258 259 260 261 262 263 265 267 270 272 273 275 277 279 280 282 283 284 286 287 288 289 290 291 292 293 294 294 295 296 297 297 298 298 298 299 299 299 299 299 299 299 299 298
262 262 263 264 265 266 268 269 271 273 274 276 277 279 280 281 283 285 286 287 288 289 291 292 293 293 294 294 295 296 297 297 298 298 298 299 299 299 299 299 300 300 300 299
263 264 265 266 268 269 270 272 273 274 275 277 278 279 281 283 285 286 287 288 289 290 291 292 292 293 294 295 296 297 298 298 298 299 299 299 299 300 300 300 300 300 300 300
262 264 265 267 268 270 272 274 275 276 277 278 279 281 282 284 286 287 288 289 290 291 291 292 293 294 295 297 297 298 299 299 300 300 300 300 301 301 301 301 300 300 300 299
264 266 267 269 270 271 273 275 276 276 277 278 280 282 284 285 286 287 288 289 290 291 292 293 294 296 297 298 298 299 300 300 301 301 301 302 303 303 302 302 301 301 300 299
267 268 269 270 271 272 273 275 276 277 278 280 281 283 284 286 287 288 288 289 291 291 292 293 295 296 297 298 299 300 300 301 301 302 303 304 304 304 304 303 303 302 301 300
267 269 270 271 272 273 274 275 276 278 279 281 282 283 284 286 287 288 289 290 291 292 293 295 296 297 298 299 300 300 301 301 302 303 304 305 304 304 304 304 303 303 302 301
Height
5822 5823 5825 5827 5828 5830 5831 5832 5834 5835 5836 5838 5839 5840 5841 5843 5844 5845 5845 5846 5847 5847 5848 5848 5848 5848 5847 5847 5847 5846 5846 5846 5845 5844 5843 5842 5841 5839 5838 5836 5835 5833 5831 5830
5821 5822 5823 5825 5826 5828 5829 5831 5832 5833 5835 5836 5837 5838 5840 5841 5842 5842 5843 5844 5844 5845 5845 5845 5845 5844 5844 5843 5843 5842 5842 5842 5841 5840 5839 5838 5837 5835 5834 5832 5831 5829 5827 5825
5819 5820 5821 5823 5825 5826 5827 5829 5830 5831 5833 5834 5835 5836 5837 5838 5839 5840 5840 5841 5841 5842 5842 5842 5841 5841 5840 5840 5839 5838 5838 5837 5837 5836 5835 5833 5832 5830 5829 5827 5826 5824 5822 5820
5816 5819 5820 5824 5823 5824 5825 5826 5828 5829 5830 5831 5832 5833 5834 5835 5836 5837 5837 5838 5838 5838 5838 5838 5837 5837 5836 5835 5834 5834 5833 5832 5831 5830 5829 5828 5826 5825 5823 5821 5820 5818 5816 5814
5813 5815 5817 5819 5820 5821 5822 5824 5825 5826 5827 5828 5829 5830 5831 5832 5833 5834 5834 5834 5834 5834 5834 5833 5833 5832 5831 5830 5829 5828 5827 5827 5826 5825 5823 5822 5820 5818 5816 5815 5812 5810 5808 5806
5810 5812 5814 5817 5818 5818 5820 5821 5822 5823 5824 5825 5826 5827 5829 5829 5829 5830 5830 5830 5830 5830 5829 5828 5828 5827 5826 5825 5824 5823 5821 5820 5819 5818 5816 5815 5813 5811 5809 5807 5804 5802 5800 5798
5806 5808 5810 5813 5814 5815 5818 5819 5819 5819 5820 5822 5823 5824 5825 5825 5825 5826 5826 5826 5825 5825 5824 5823 5822 5821 5820 5819 5817 5816 5815 5813 5812 5810 5809 5807 5804 5802 5800 5798 5795 5793 5791 5789
5802 5804 5808 5808 5809 5811 5813 5813 5814 5815 5816 5817 5818 5819 5820 5820 5821 5821 5821 5821 5820 5820 5819 5818 5816 5815 5813 5812 5811 5809 5807 5806 5804 5802 5800 5797 5795 5793 5790 5788 5785 5783 5780 5778
5799 5802 5802 5803 5805 5806 5807 5809 5810 5811 5812 5813 5813 5814 5815 5815 5815 5815 5815 5815 5814 5813 5812 5811 5810 5808 5806 5805 5803 5801 5799 5797 5795 5792 5790 5788 5785 5783 5780 5777 5775 5772 5769 5767
5793 5795 5796 5797 5799 5800 5802 5803 5805 5806 5807 5807 5808 5809 5809 5809 5809 5809 5808 5808 5807 5806 5805 5804 5802 5800 5799 5797 5794 5792 5790 5788 5785 5783 5780 5778 5775 5772 5769 5766 5763 5760 5757 5755
5787 5789 5790 5791 5793 5794 5796 5797 5799 5800 5801 5801 5802 5802 5802 5802 5802 5802 5801 5800 5799 5798 5797 5795 5794 5792 5790 5788 5785 5783 5780 5778 5775 5772 5769 5766 5763 5760 5757 5754 5751 5748 5745 5741
5781 5783 5784 5786 5787 5788 5789 5791 5792 5793 5794 5794 5795 5795 5795 5794 5794 5793 5793 5792 5791 5790 5788 5786 5784 5782 5780 5778 5775 5772 5770 5767 5764 5761 5758 5754 5751 5748 5744 5741 5737 5734 5730 5727
5774 5775 5777 5779 5780 5781 5782 5783 5784 5785 5786 5786 5787 5787 5786 5786 5785 5785 5784 5783 5782 5780 5778 5777 5774 5772 5770 5767 5764 5762 5759 5756 5752 5749 5746 5742 5738 5735 5732 5728 5724 5719 5715 5711
5766 5768 5770 5771 5773 5774 5775 5776 5777 5778 5778 5778 5778 5778 5778 5777 5776 5775 5774 5773 5772 5770 5768 5766 5764 5761 5759 5756 5753 5750 5747 5744 5740 5737 5733 5729 5725 5721 5717 5713 5710 5706 5701 5696
5759 5761 5762 5764 5765 5766 5767 5768 5769 5769 5769 5770 5769 5769 5769 5768 5767 5766 5765 5763 5761 5760 5757 5755 5753 5750 5747 5744 5741 5738 5734 5731 5727 5723 5719 5715 5711 5706 5702 5698 5694 5689 5685 5680
5750 5752 5754 5755 5757 5758 5759 5759 5760 5760 5760 5760 5760 5760 5759 5758 5757 5756 5754 5752 5751 5748 5746 5743 5741 5738 5735 5732 5728 5725 5721 5717 5713 5709 5705 5700 5695 5691 5686 5682 5677 5673 5668 5663
5742 5743 5745 5746 5748 5749 5750 5750 5751 5751 5751 5751 5750 5750 5749 5748 5746 5745 5743 5741 5739 5736 5734 5731 5728 5725 5722 5718 5715 5711 5707 5703 5699 5694 5689 5685 5680 5675 5670 5665 5660 5656 5651 5646
5732 5734 5735 5737 5738 5739 5740 5740 5740 5741 5741 5740 5740 5739 5738 5736 5735 5733 5731 5729 5727 5724 5721 5718 5715 5712 5708 5704 5700 5696 5692 5688 5683 5678 5674 5669 5664 5659 5653 5648 5643 5638 5634 5629
5722 5723 5725 5726 5727 5728 5729 5729 5729 5730 5729 5729 5728 5727 5726 5724 5722 5720 5718 5716 5713 5711 5708 5704 5701 5697 5694 5690 5686 5681 5677 5672 5667 5662 5657 5652 5647 5642 5637 5631 5626 5621 5616 5611
5711 5712 5714 5715 5716 5717 5717 5718 5718 5718 5717 5717 5716 5714 5713 5711 5709 5707 5705 5702 5699 5696 5694 5690 5687 5683 5679 5675 5670 5666 5661 5656 5652 5647 5642 5636 5631 5626 5620 5615 5610 5604 5599 5594
5700 5701 5702 5703 5704 5705 5705 5705 5705 5705 5705 5704 5703 5701 5700 5698 5696 5694 5691 5689 5686 5682 5679 5676 5672 5668 5664 5660 5655 5651 5646 5641 5636 5631 5626 5620 5615 5610 5604 5599 5593 5588 5582 5577
5689 5690 5691 5691 5692 5693 5693 5693 5693 5692 5691 5691 5689 5688 5686 5685 5682 5680 5677 5674 5671 5668 5665 5661 5657 5653 5649 5644 5640 5635 5630 5625 5620 5615 5609 5604 5599 5593 5588 5582 5577 5571 5566 5560
5677 5678 5678 5679 5680 5680 5680 5680 5680 5679 5678 5677 5676 5674 5673 5671 5668 5666 5663 5660 5657 5653 5650 5646 5642 5638 5633 5629 5625 5620 5615 5610 5604 5599 5593 5588 5582 5577 5571 5566 5560 5555 5550 5545
5665 5666 5667 5667 5667 5668 5668 5667 5666 5665 5665 5663 5662 5660 5659 5657 5654 5651 5648 5645 5642 5638 5635 5631 5627 5623 5618 5614 5609 5604 5599 5594 5588 5583 5578 5572 5566 5560 5555 5549 5544 5539 5534 5529
5653 5654 5654 5655 5655 5655 5654 5654 5653 5652 5651 5650 5648 5646 5644 5642 5640 5637 5634 5630 5627 5623 5620 5616 5612 5608 5603 5599 5594 5589 5584 5579 5573 5568 5562 5557 5551 5545 5539 5534 5528 5523 5519 5514
5641 5642 5642 5642 5642 5642 5641 5641 5640 5639 5638 5636 5635 5632 5630 5627 5625 5622 5619 5616 5612 5609 5605 5602 5598 5594 5589 5584 5580 5574 5569 5564 5559 5553 5547 5541 5536 5530 5524 5519 5514 5508 5504 5499
5630 5630 5630 5630 5630 5629 5629 5628 5627 5626 5624 5623 5621 5619 5616 5613 5611 5608 5605 5602 5598 5595 5592 5588 5584 5579 5575 5570 5565 5560 5555 5549 5544 5538 5533 5527 5521 5516 5510 5505 5500 5495 5490 5485